Total_Precipitation_Accumulation
0.13 0.11 0.10 0.09 0.07 0.05 0.03 0.02 0.01 0.00 0.00 0.00 0.00 0.00 0.00 0.00 0.00 0.00 0.00 0.00 0.00 0.01 0.01 0.02 0.03 0.05 0.08 0.12 0.15 0.17 0.14 0.10 0.08 0.08 0.07 0.06 0.06 0.06 0.08 0.09 0.10 0.10 0.11
0.16 0.13 0.11 0.08 0.06 0.05 0.03 0.01 0.00 0.00 0.00 0.00 0.00 0.00 0.00 0.00 0.00 0.00 0.00 0.00 0.00 0.00 0.00 0.02 0.03 0.08 0.13 0.17 0.20 0.20 0.18 0.13 0.11 0.10 0.09 0.08 0.08 0.08 0.09 0.10 0.11 0.12 0.13
0.19 0.16 0.13 0.09 0.06 0.05 0.04 0.03 0.02 0.01 0.00 0.00 0.00 0.00 0.00 0.00 0.00 0.00 0.00 0.00 0.00 0.00 0.00 0.01 0.04 0.09 0.14 0.17 0.21 0.24 0.21 0.17 0.14 0.12 0.11 0.11 0.11 0.11 0.11 0.12 0.13 0.14 0.15
0.25 0.21 0.15 0.12 0.10 0.08 0.06 0.04 0.03 0.02 0.01 0.01 0.01 0.01 0.01 0.01 0.00 0.00 0.00 0.00 0.00 0.00 0.00 0.01 0.03 0.06 0.11 0.15 0.21 0.28 0.28 0.25 0.21 0.17 0.14 0.12 0.12 0.12 0.12 0.13 0.14 0.15 0.17
0.30 0.27 0.21 0.17 0.16 0.12 0.09 0.06 0.04 0.04 0.04 0.04 0.03 0.02 0.02 0.01 0.01 0.01 0.00 0.00 0.00 0.01 0.01 0.02 0.02 0.03 0.06 0.08 0.13 0.23 0.31 0.33 0.28 0.21 0.17 0.15 0.14 0.14 0.14 0.15 0.16 0.18 0.19
0.37 0.32 0.27 0.27 0.26 0.21 0.16 0.12 0.10 0.08 0.08 0.08 0.07 0.03 0.02 0.02 0.01 0.01 0.01 0.01 0.01 0.02 0.03 0.03 0.03 0.02 0.02 0.04 0.07 0.12 0.22 0.31 0.32 0.26 0.22 0.19 0.18 0.18 0.20 0.21 0.22 0.22 0.22
0.60 0.49 0.36 0.34 0.34 0.30 0.28 0.24 0.20 0.18 0.16 0.15 0.11 0.06 0.03 0.02 0.01 0.01 0.01 0.02 0.02 0.03 0.04 0.04 0.03 0.03 0.02 0.03 0.04 0.06 0.12 0.23 0.30 0.30 0.26 0.23 0.23 0.22 0.25 0.29 0.32 0.32 0.33
0.76 0.70 0.61 0.54 0.49 0.44 0.40 0.37 0.34 0.28 0.22 0.24 0.21 0.17 0.07 0.03 0.01 0.02 0.03 0.02 0.03 0.03 0.03 0.04 0.04 0.03 0.03 0.03 0.04 0.04 0.07 0.14 0.24 0.31 0.31 0.29 0.27 0.27 0.31 0.36 0.40 0.41 0.43
0.92 0.86 0.82 0.80 0.75 0.68 0.59 0.56 0.53 0.46 0.38 0.34 0.33 0.33 0.19 0.08 0.04 0.03 0.03 0.03 0.03 0.03 0.04 0.04 0.05 0.05 0.04 0.04 0.05 0.06 0.07 0.09 0.15 0.28 0.38 0.38 0.36 0.36 0.40 0.46 0.50 0.53 0.53
1.06 1.02 0.97 0.93 0.91 0.82 0.72 0.73 0.73 0.65 0.59 0.49 0.44 0.38 0.31 0.22 0.18 0.10 0.05 0.05 0.05 0.04 0.05 0.06 0.06 0.06 0.05 0.06 0.07 0.10 0.13 0.14 0.18 0.29 0.42 0.49 0.47 0.50 0.56 0.62 0.70 0.71 0.66
1.10 1.02 0.99 0.99 0.95 0.90 0.82 0.80 0.79 0.76 0.72 0.64 0.54 0.48 0.43 0.32 0.23 0.21 0.13 0.08 0.08 0.08 0.09 0.08 0.07 0.07 0.07 0.09 0.11 0.15 0.21 0.23 0.27 0.34 0.44 0.52 0.58 0.64 0.72 0.77 0.82 0.84 0.81
1.09 1.02 0.96 0.95 0.96 0.92 0.86 0.84 0.86 0.87 0.83 0.73 0.61 0.52 0.49 0.42 0.33 0.33 0.29 0.19 0.17 0.15 0.14 0.13 0.12 0.12 0.13 0.15 0.19 0.26 0.30 0.32 0.37 0.43 0.50 0.58 0.65 0.71 0.78 0.86 0.91 0.94 0.93
1.07 1.00 0.96 0.94 0.93 0.94 0.96 0.97 0.93 0.86 0.86 0.81 0.74 0.65 0.59 0.52 0.49 0.50 0.49 0.38 0.30 0.24 0.22 0.21 0.21 0.21 0.23 0.25 0.30 0.41 0.43 0.47 0.51 0.54 0.61 0.71 0.73 0.71 0.71 0.77 0.87 0.94 0.98
1.01 1.01 1.02 1.03 1.02 1.01 0.99 0.96 0.90 0.84 0.83 0.80 0.76 0.72 0.66 0.57 0.56 0.58 0.61 0.65 0.60 0.46 0.39 0.36 0.35 0.36 0.37 0.39 0.45 0.53 0.50 0.57 0.56 0.58 0.63 0.69 0.67 0.62 0.59 0.61 0.72 0.82 0.87
0.93 0.95 0.98 1.01 1.02 0.99 0.94 0.90 0.84 0.79 0.78 0.76 0.71 0.69 0.64 0.58 0.56 0.56 0.59 0.67 0.76 0.70 0.53 0.40 0.39 0.41 0.44 0.46 0.52 0.50 0.46 0.56 0.57 0.55 0.58 0.58 0.55 0.52 0.48 0.49 0.54 0.62 0.66
0.78 0.80 0.86 0.91 0.91 0.89 0.84 0.82 0.79 0.76 0.76 0.72 0.68 0.67 0.63 0.58 0.57 0.57 0.60 0.65 0.72 0.79 0.69 0.48 0.40 0.42 0.45 0.46 0.52 0.45 0.42 0.49 0.48 0.47 0.47 0.47 0.44 0.41 0.39 0.39 0.41 0.47 0.51
0.74 0.76 0.78 0.80 0.80 0.80 0.79 0.77 0.72 0.68 0.67 0.65 0.63 0.62 0.61 0.58 0.58 0.57 0.58 0.61 0.64 0.69 0.73 0.59 0.49 0.49 0.50 0.47 0.46 0.40 0.36 0.34 0.33 0.38 0.36 0.35 0.33 0.31 0.30 0.30 0.31 0.34 0.37
0.63 0.62 0.64 0.66 0.65 0.64 0.65 0.66 0.65 0.62 0.59 0.57 0.56 0.57 0.57 0.56 0.56 0.55 0.57 0.59 0.59 0.60 0.63 0.58 0.47 0.43 0.41 0.38 0.34 0.29 0.25 0.21 0.20 0.27 0.26 0.25 0.24 0.22 0.21 0.22 0.25 0.30 0.32
0.62 0.54 0.51 0.53 0.54 0.55 0.55 0.55 0.56 0.55 0.55 0.54 0.52 0.53 0.54 0.57 0.59 0.57 0.56 0.56 0.54 0.53 0.53 0.52 0.43 0.36 0.32 0.28 0.26 0.22 0.18 0.16 0.14 0.17 0.18 0.18 0.18 0.18 0.19 0.20 0.22 0.24 0.24
0.57 0.53 0.48 0.46 0.46 0.49 0.52 0.54 0.54 0.54 0.54 0.54 0.54 0.55 0.54 0.55 0.55 0.54 0.55 0.55 0.53 0.50 0.48 0.47 0.45 0.39 0.33 0.28 0.25 0.21 0.17 0.14 0.12 0.11 0.14 0.14 0.15 0.15 0.13 0.11 0.11 0.13 0.15
0.44 0.44 0.45 0.46 0.45 0.44 0.46 0.50 0.52 0.54 0.55 0.56 0.56 0.57 0.57 0.59 0.58 0.55 0.50 0.47 0.44 0.44 0.46 0.50 0.49 0.39 0.29 0.24 0.21 0.18 0.18 0.17 0.16 0.14 0.13 0.11 0.10 0.09 0.08 0.08 0.08 0.09 0.12
0.37 0.40 0.43 0.48 0.52 0.54 0.64 0.60 0.55 0.56 0.59 0.59 0.57 0.54 0.52 0.53 0.49 0.47 0.44 0.41 0.42 0.46 0.54 0.56 0.46 0.32 0.23 0.19 0.19 0.21 0.23 0.26 0.21 0.11 0.11 0.10 0.09 0.08 0.06 0.06 0.08 0.10 0.12
0.44 0.49 0.52 0.56 0.61 0.69 0.77 0.69 0.65 0.57 0.58 0.58 0.55 0.50 0.46 0.42 0.41 0.35 0.35 0.36 0.37 0.40 0.40 0.34 0.26 0.20 0.19 0.19 0.26 0.31 0.28 0.26 0.18 0.10 0.12 0.12 0.09 0.09 0.07 0.06 0.08 0.07 0.08
0.66 0.70 0.74 0.75 0.73 0.74 0.73 0.65 0.63 0.56 0.53 0.48 0.43 0.38 0.34 0.30 0.28 0.28 0.30 0.35 0.32 0.28 0.24 0.21 0.18 0.16 0.17 0.19 0.25 0.33 0.32 0.28 0.18 0.12 0.11 0.12 0.08 0.07 0.06 0.06 0.07 0.06 0.07
0.78 0.76 0.74 0.72 0.68 0.62 0.57 0.48 0.42 0.37 0.38 0.37 0.32 0.28 0.26 0.24 0.27 0.32 0.34 0.35 0.25 0.19 0.19 0.21 0.22 0.21 0.20 0.19 0.20 0.28 0.33 0.33 0.24 0.12 0.09 0.09 0.07 0.07 0.06 0.06 0.06 0.06 0.07
0.60 0.54 0.50 0.46 0.42 0.39 0.36 0.31 0.28 0.25 0.23 0.22 0.23 0.23 0.26 0.25 0.29 0.35 0.33 0.28 0.21 0.17 0.18 0.19 0.20 0.19 0.18 0.18 0.20 0.22 0.33 0.50 0.39 0.22 0.07 0.10 0.12 0.14 0.22 0.07 0.04 0.04 0.04